This is the latest recevied weather packets stored in our database for station/object PA3CPS. If no packets are shown the sender has not sent any weather packets the latest 1 day(s).
| Time | Temp. | Humidity | Pressure | Rain* | Wind** | Luminosity | Snow |
|---|---|---|---|---|---|---|---|
| 1777989625 | 12.22° C | 81% | 1010 hPa | 0 mm | 1.34 m/s, 16° | 209 W/m² | - |
| 1777989317 | 12.22° C | 81% | 1009.9 hPa | 0 mm | 2.68 m/s, 339° | 181 W/m² | - |
| 1777989013 | 12.22° C | 81% | 1010 hPa | 0 mm | 2.68 m/s, 18° | 181 W/m² | - |
| 1777988712 | 12.22° C | 82% | 1010.1 hPa | 0 mm | 2.68 m/s, 15° | 200 W/m² | - |
| 1777988410 | 12.22° C | 82% | 1010 hPa | 0 mm | 1.34 m/s, 15° | 236 W/m² | - |
| 1777988107 | 12.22° C | 82% | 1010.1 hPa | 0 mm | 2.24 m/s, 349° | 232 W/m² | - |
| 1777987806 | 12.22° C | 82% | 1010.1 hPa | 0 mm | 1.34 m/s, 311° | 301 W/m² | - |
| 1777987506 | 12.22° C | 82% | 1010 hPa | 0 mm | 2.68 m/s, 24° | 262 W/m² | - |
| 1777987203 | 12.22° C | 83% | 1010.1 hPa | 0 mm | 1.79 m/s, 26° | 213 W/m² | - |
| 1777986902 | 12.22° C | 83% | 1010.2 hPa | 0 mm | 2.68 m/s, 24° | 207 W/m² | - |
| 1777986601 | 11.67° C | 83% | 1010.2 hPa | 0 mm | 2.24 m/s, 11° | 250 W/m² | - |
| 1777986299 | 11.67° C | 83% | 1010.3 hPa | 0 mm | 2.24 m/s, 354° | 279 W/m² | - |
| 1777985999 | 11.67° C | 83% | 1010.4 hPa | 0 mm | 1.79 m/s, 344° | 297 W/m² | - |
| 1777985697 | 11.67° C | 83% | 1010.3 hPa | 0 mm | 2.24 m/s, 356° | 244 W/m² | - |
| 1777985394 | 11.67° C | 83% | 1010.4 hPa | 0 mm | 1.79 m/s, 33° | 183 W/m² | - |
| 1777985093 | 11.67° C | 83% | 1010.5 hPa | 0 mm | 1.79 m/s, 41° | 218 W/m² | - |
| 1777984790 | 11.67° C | 83% | 1010.5 hPa | 0 mm | 2.24 m/s, 359° | 200 W/m² | - |
| 1777984489 | 12.22° C | 83% | 1010.5 hPa | 0 mm | 1.34 m/s, 33° | 162 W/m² | - |
| 1777984187 | 12.22° C | 83% | 1010.5 hPa | 0 mm | 2.24 m/s, 20° | 176 W/m² | - |
| 1777983886 | 12.22° C | 82% | 1010.5 hPa | 0 mm | 1.79 m/s, 328° | 236 W/m² | - |
| 1777983585 | 12.22° C | 83% | 1010.5 hPa | 0 mm | 2.68 m/s, 342° | 234 W/m² | - |
| 1777983281 | 12.22° C | 83% | 1010.5 hPa | 0 mm | 3.58 m/s, 348° | 309 W/m² | - |
| 1777982978 | 12.22° C | 83% | 1010.4 hPa | 0 mm | 3.13 m/s, 318° | 306 W/m² | - |
| 1777982676 | 12.22° C | 83% | 1010.4 hPa | 0 mm | 2.24 m/s, 341° | 229 W/m² | - |
| 1777982377 | 12.22° C | 84% | 1010.4 hPa | 0 mm | 2.24 m/s, 320° | 216 W/m² | - |
* Rain latest hour (hover to see other rain measurements)
** Current wind speed in m/s (hover to see current wind gust speed)